This demonstration page uses our WeatherBlox Daily Observations layout. Learn more.

Left ArrowRight Arrow

Hourly Observations for May 23, 2020

Temp ( °F °C ) Dew Point ( °F °C ) Humidity (%) Winds ( mph kmh ) Pressure ( in mb ) Visibility ( mi km ) Precip ( " mm )
12:52 am 00:52 Clear 63 17.2 62 16.7 97 97 SSE 9 15 29.85 1011 10 16 0.00 0.00
1:52 am 01:52 Clear 64 17.8 63 17.2 96 96 SSE 10 17 29.84 1010 10 16 0.00 0.00
2:52 am 02:52 Clear 64 17.8 63 17.2 96 96 S 8 13 29.82 1010 10 16 0.00 0.00
3:52 am 03:52 Clear 64 17.8 64 17.8 100 100 S 12 19 29.82 1010 10 16 0.00 0.00
4:32 am 04:32 Mostly Clear 64 17.8 64 17.8 100 100 SSE 13 20 29.82 1010 10 16 0.00 0.00
4:49 am 04:49 Mostly Cloudy 64 18 64 18 100 100 SSE 12 19 29.82 1010 10 16 0.00 0.00
4:52 am 04:52 Mostly Cloudy 64 17.8 64 17.8 100 100 SSE 12 19 29.82 1010 10 16 0.00 0.00
5:39 am 05:39 Partly Cloudy 64 17.8 64 17.8 100 100 SSE 10 17 29.83 1010 10 16 0.00 0.00
5:52 am 05:52 Partly Cloudy 64 17.8 64 17.8 100 100 S 10 17 29.83 1010 10 16 0.00 0.00
6:52 am 06:52 Cloudy 65 18.3 63 17.2 93 93 S 10 17 29.84 1011 10 16 0.00 0.00
7:52 am 07:52 Mostly Cloudy 67 19.4 61 16.1 81 81 S 16 26 29.87 1011 10 16 0.00 0.00
8:52 am 08:52 Sunny 69 20.6 60 15.6 73 73 S 15 24 29.88 1012 10 16 0.00 0.00
9:52 am 09:52 Sunny 70 21.1 60 15.6 71 71 SSW 10 17 29.89 1012 10 16 0.00 0.00
10:52 am 10:52 Sunny 71 21.7 61 16.1 71 71 SSW 10 17 29.88 1012 10 16 0.00 0.00
11:52 am 11:52 Sunny 75 23.9 63 17.2 66 66 SSW 10 17 29.87 1012 10 16 0.00 0.00
12:52 pm 12:52 Sunny 77 25 62 16.7 60 60 SW 12 19 29.87 1012 10 16 0.00 0.00
1:52 pm 13:52 Sunny 79 26.1 64 17.8 60 60 SSW 9 15 29.86 1011 10 16 0.00 0.00
2:52 pm 14:52 Sunny 81 27.2 64 17.8 57 57 S 8 13 29.85 1011 10 16 0.00 0.00
3:52 pm 15:52 Sunny 82 27.8 63 17.2 53 53 SSW 6 9 29.84 1011 10 16 0.00 0.00
4:52 pm 16:52 Sunny 82 27.8 64 17.8 55 55 SSE 8 13 29.83 1010 10 16 0.00 0.00
5:52 pm 17:52 Sunny 81 27.2 64 17.8 57 57 S 8 13 29.83 1010 10 16 0.00 0.00
6:52 pm 18:52 Sunny 81 27.2 65 18.3 58 58 S 7 11 29.82 1010 10 16 0.00 0.00
7:52 pm 19:52 Sunny 77 25 66 18.9 69 69 SSE 9 15 29.82 1010 10 16 0.00 0.00
8:52 pm 20:52 Clear 74 23.3 63 17.2 69 69 SSE 7 11 29.82 1010 10 16 0.00 0.00
9:52 pm 21:52 Clear 72 22.2 63 17.2 73 73 SSE 8 13 29.84 1010 10 16 0.00 0.00
10:52 pm 22:52 Clear 70 21.1 64 17.8 82 82 SSE 7 11 29.87 1012 10 16 0.00 0.00
11:52 pm 23:52 Clear 69 20.6 64 17.8 84 84 SSE 8 13 29.88 1012 10 16 0.00 0.00

Powered by AerisWeather